Weather History for Mercury, NV

Change the Weather History Date:

Monday, November 14, 2011

  Actual Average Record
Temperature  
Mean Temperature 48 °F -  
Max Temperature 62 °F 61 °F 79 °F (1999)
Min Temperature 35 °F 38 °F 25 °F (2000)
Degree Days  
Heating Degree Days 16    
Moisture  
Dew Point 32 °F    
Average Humidity 59    
Maximum Humidity 82    
Minimum Humidity 34    
Precipitation  
Precipitation 0.00 in - - ()
Sea Level Pressure  
Sea Level Pressure 29.90 in    
Wind  
Wind Speed 2 mph (South)    
Max Wind Speed 8 mph    
Max Gust Speed -    
Visibility 10 miles    
Events      
Averages and records for this station are not official NWS values.
T = Trace of Precipitation, MM = Missing Value Source: NWS Daily Summary

Daily Weather History Graph

Daily Weather History Graph

Search for Another Location

Airport:

Trip Planner

Search our weather history database for the weather conditions in past years. The results will help you decide how hot, cold, wet, or windy it might be!

Date:

Astronomy

Nov. 14, 2011 Rise Set
Actual Time 6:20 AM PST 4:35 PM PST
Civil Twilight 5:53 AM PST 5:03 PM PST
Nautical Twilight 5:22 AM PST 5:34 PM PST
Astronomical Twilight 4:51 AM PST 6:05 PM PST
Moon 7:49 PM PST (11/14) 9:40 AM PST (11/14)
Length of Visible Light 11h 10m
Length of Day
10h 15m
Waning Gibbous, 86% of the Moon is Illuminated
Nov 14
Waning Gibbous
Nov 18
Last Quarter
Nov 24
New
Dec 2
First Quarter
Dec 10
Full

Hourly Weather History & Observations

Time (PST) Temp. Windchill Dew Point Humidity Pressure Visibility Wind Dir Wind Speed Gust Speed Precip Events Conditions
12:53 AM 37.9 °F - 30.9 °F 76% 29.89 in 10.0 mi Calm Calm - N/A   Clear
1:53 AM 36.0 °F - 30.0 °F 79% 29.89 in 10.0 mi Calm Calm - N/A   Clear
2:53 AM 37.9 °F - 30.9 °F 76% 29.87 in 10.0 mi Calm Calm - N/A   Clear
3:53 AM 37.0 °F 34.5 °F 30.9 °F 79% 29.86 in 10.0 mi ESE 3.5 mph - N/A   Clear
4:53 AM 37.9 °F 34.4 °F 32.0 °F 79% 29.88 in 10.0 mi East 4.6 mph - N/A   Clear
5:53 AM 35.1 °F - 30.0 °F 82% 29.89 in 10.0 mi Calm Calm - N/A   Clear
6:53 AM 37.0 °F - 30.9 °F 79% 29.91 in 10.0 mi Calm Calm - N/A   Clear
7:53 AM 41.0 °F - 33.1 °F 73% 29.92 in 10.0 mi Calm Calm - N/A   Clear
8:53 AM 48.0 °F - 33.1 °F 56% 29.93 in 10.0 mi Calm Calm - N/A   Clear
9:53 AM 55.9 °F - 35.1 °F 45% 29.92 in 10.0 mi Calm Calm - N/A   Clear
10:53 AM 59.0 °F - 34.0 °F 39% 29.90 in 10.0 mi Calm Calm - N/A   Clear
11:53 AM 60.1 °F - 33.1 °F 36% 29.87 in 10.0 mi Variable 3.5 mph - N/A   Clear
12:53 PM 62.1 °F - 33.1 °F 34% 29.84 in 10.0 mi South 4.6 mph - N/A   Clear
1:53 PM 62.1 °F - 33.1 °F 34% 29.84 in 10.0 mi SW 6.9 mph - N/A   Clear
2:53 PM 62.1 °F - 33.1 °F 34% 29.84 in 10.0 mi WSW 8.1 mph - N/A   Clear
3:53 PM 60.1 °F - 34.0 °F 38% 29.85 in 10.0 mi SW 8.1 mph - N/A   Clear
4:53 PM 55.0 °F - 33.1 °F 43% 29.86 in 10.0 mi SW 3.5 mph - N/A   Clear
5:53 PM 50.0 °F - 32.0 °F 50% 29.90 in 10.0 mi NNE 3.5 mph - N/A   Clear
6:53 PM 48.0 °F - 32.0 °F 54% 29.93 in 10.0 mi North 6.9 mph - N/A   Clear
7:53 PM 45.0 °F 43.5 °F 32.0 °F 60% 29.94 in 10.0 mi NE 3.5 mph - N/A   Clear
8:53 PM 43.0 °F 41.3 °F 32.0 °F 65% 29.95 in 10.0 mi East 3.5 mph - N/A   Clear
9:53 PM 44.1 °F - 32.0 °F 63% 29.94 in 10.0 mi Calm Calm - N/A   Clear
10:53 PM 39.0 °F 36.8 °F 30.0 °F 70% 29.95 in 10.0 mi SSW 3.5 mph - N/A   Clear
11:53 PM 41.0 °F - 32.0 °F 70% 29.94 in 10.0 mi Calm Calm - N/A   Clear